Regional Weather Roundup
Issued by NWS

Home | Current Version | Previous Version | Text Only | Print | Product List | Glossary On
Versions: 1 2 3 4 5 6 7 8 9 10 11 12 13 14 15 16 17 18 19 20 21 22 23 24 25 26 27 28 29 30 31 32 33 34 35 36 37 38 39 40 41 42 43 44 45 46 47 48 49 50
000
ASPQ40 PGUM 041714
RWRPQ
WEATHER ROUNDUP FOR THE MARIANAS AND MICRONESIA
NATIONAL WEATHER SERVICE TIYAN GU
300 AM CHST SUN JUL 05 2015

GUZ001>004-041800-
MARIANA ISLANDS-

CITY           SKY/WX    TMP DP  RH WIND       PRES   REMARKS
GUAM AIRPORT   HVY RAIN  77  77 100 NW10      29.47F FOG
ANDERSEN AFB   HVY RAIN  73  72  94 W16       29.46F
ROTA AIRPORT   NOT AVBL
TINIAN AP      NOT AVBL
SAIPAN AP      LGT RAIN  81  79  94 E29G38    29.45F

$$

PMZ161-041800-
REPUBLIC OF PALAU-

CITY           SKY/WX    TMP DP  RH WIND       PRES   REMARKS
KOROR AP       MOCLDY    81  73  78 SW12      29.78F
KOROR WSO      CLOUDY    82  75  78 W17       29.78F

$$

PMZ171>174-041800-
FEDERATED STATES OF MICRONESIA-

CITY           SKY/WX    TMP DP  RH WIND       PRES   REMARKS
YAP AIRPORT    CLOUDY    82  77  83 W10       29.72F HX  91
CHUUK AP       CLOUDY    79  77  94 SW15      29.73R
POHNPEI AP     CLOUDY    77  75  94 SW6       29.76R
POHNPEI WSO    CLOUDY    75  75 100 CALM      29.80R
KOSRAE AP      CLOUDY    82  77  83 W7        29.74F HX  91

$$

PMZ181-041800-
REPUBLIC OF THE MARSHALL ISLANDS-

CITY           SKY/WX    TMP DP  RH WIND       PRES   REMARKS
KWAJALEIN AP   PTCLDY    79  75  89 SW8       29.70R
MAJURO AP      NOT AVBL
MAJURO WSO     MOCLDY    82  77  83 S12       29.74S HX  91

$$




USA.gov is the U.S. government's official web portal to all federal, state and local government web resources and services.